星链-1907 (STARLINK-1907 )

导读 | 星芒AI

STARLINK-1907 是 SpaceX Starlink 项目中的一颗低轨通信卫星,属于第 19 批发射的星链卫星群。该卫星于 2022 年 10 月 28 日由猎鹰 9 号火箭送入近地轨道,旨在为全球提供高速互联网服务。它运行在约 550 公里的高度,设计寿命为 5 至 7 年。STARLINK-1907 采用先进相控阵天线和激光通信技术,提升网络覆盖与传输效率,支持偏远地区互联网接入,推动全球数字连接。

基本信息
目录编号:
47177
目录名称:
STARLINK-1907
国际标识:
2020-088BH
轨道中心:
EARTH
卫星名称:
星链-1907
卫星全名:
星链-1907 (STARLINK-1907 )
卫星状态:
已陨落 最后检测时间 2025-03-05
发射日期:
2020-11-25 UTC
国别 :
美国 (US)
星等 :
--
轨道信息
数据来源 国际轨道数据
星历时间: 2025-03-05T09:01:08+0800
轨道信息已过期286天
半长轴: 6528.035km
偏心率: 0.0009893
轨道倾角: 53.015°
近地点辐角 326.055°
升交点赤经 105.289°
平近点角 111.387°
近地点: 143.441km
远地点: 156.359km
周期: 87.485分钟
每日圈数: 16.459973
详细信息
固有亮度:
5
最大亮度:
2.5
卫星平台:
Starlink V1.0
覆盖范围:
全球
运营商:
太空探索技术公司
运营商所在国:
美国
制造商(研发单位):
太空探索技术公司
制造商所在国:
美国
使用方式:
暂无
卫星简介
星链(Starlink)计划是由太空探索技术公司(SpaceX)提出的一个巨型低轨卫星互联网星座项目,计划在2019年至2024年间在太空搭建由约1.2万颗卫星组成的“星链”网络,其中1584颗将部署在地球上空550千米处的近地轨道,并从2020年开始工作。该卫星仍在工作。